Погода в Голд-Кост

Австралия     28°00′05″S   153°21′48″E
темп.,
°C
ветер,
м/с
пор.,
м/с
влажн.,
%
обл.,
%
осадки,
мм/ч
давл.,
гПа
погр.,
м
21 апреля, ср
ср2101:00+14з11940 0.0 101415
04:00+13з21910 0.0 101429
07:00+14з22800 0.0 101559
10:00+22зсз27490 0.0 1014632
13:00+27з49330 0.0 10112166
16:00+24зюз38360 0.0 1011639
19:00+16юз23490 0.0 101441
22:00+15юз24490 0.0 101571
22 апреля, чт
чт2201:00+13юз21590 0.0 101518
04:00+11юз11630 0.0 101410
07:00+12зюз1165100 0.0 101531
10:00+19зсз1345100 0.0 1015477
13:00+20з3640100 0.0 1013807
16:00+19з1352100 0.0 1012115
19:00+15зюз225444 0.0 101446
22:00+12з23550 0.0 101649
23 апреля, пт
пт2301:00+11зюз23550 0.0 101646
04:00+10зюз22560 0.0 101635
07:00+10юз22580 0.0 101845
10:00+20ссз02320 0.0 1018990
13:00+22св22332 0.0 10161747
16:00+19всв22550 0.0 1017596
19:00+13ю11830 0.0 101915
22:00+12ююз11810 0.0 102117
24 апреля, сб
сб2401:00+11юз21820 0.0 102119
04:00+11юз22810 0.0 102023
07:00+13ююз11770 0.0 102239
10:00+21всв11500 0.0 10221163
13:00+22св22452 0.0 10201726
16:00+20всв22595 0.0 1020614
19:00+14ю11860 0.0 102218
22:00+13ююз11871 0.0 102319
25 апреля, вс
вс2501:00+12юз119079 0.0 102219
04:00+12юз118813 0.0 102119
07:00+14юз1182100 0.0 102238
10:00+21сз01531 0.0 10221022
13:00+23ссв224517 0.0 10191752
16:00+21всв22605 0.0 1018521
19:00+14ююв11920 0.0 102119
22:00+14ююз11945 0.0 102221